User: anonymous   Login
Location: Newark
(47.0000°N, 7.6833°E)
Time: 09:12:14
(UTC+00:00)
Language:

DELFI C3 - Orbit

View from above orbital plane
View from above orbital plane
View from above satellite
View from above satellite

Ground track
Ground track

The orbit data is extracted from the following two-line orbital elements,

1 32789U 08021G   19291.92015220  .00000731  00000-0  52501-4 0  9991
2 32789  97.4518 337.8274 0013634  70.8047 289.4655 15.07181379625376
Epoch (UTC): 18 October 2019 22:05:01
Eccentricity: 0.0013634
inclination: 97.4518°
perigee height: 535 km
apogee height: 554 km
right ascension of ascending node: 337.8274°
argument of perigee: 70.8047°
revolutions per day: 15.07181379
mean anomaly at epoch: 289.4655°
orbit number at epoch: 62537

The dashed part of the orbit path shows where the satellite is in the earth's shadow,  

DLR